Location: Calvatone
(45.1167°N, 10.4333°E)
Time: 11:03:30
(UTC+00:00)

Landsat 4 - Pass Details

Date: 28 January 2023
Orbit: 487 x 502 km, 98.3° (Epoch: 30 March)

Event Time Altitude Azimuth Distance (km) Brightness Sun altitude
Rises 16:51:07 0° 172° (S) 2,546 7.4 -6.0°
Reaches altitude 10° 16:53:11 10° 175° (S) 1,670 6.5 -6.3°
Maximum altitude 16:56:44 64° 258° (WSW) 547 4.1 -6.9°
Drops below altitude 10° 17:00:20 10° 340° (NNW) 1,687 6.3 -7.5°
Sets 17:02:26 0° 344° (NNW) 2,576 7.2 -7.8°
